Location: *
(49.4547°N, 7.9131°E)
Time: 12:21:24
(UTC+00:00)

Cosmos 2218 Rocket - Pass Details

Date: 22 September 2019
Orbit: 956 x 1006 km, 82.9° (Epoch: 17 October)

Event Time Altitude Azimuth Distance (km) Brightness Sun altitude
Rises 18:43:36 0° 352° (N) 3,742 7.4 -13.1°
Reaches altitude 10° 18:46:12 10° 356° (N) 2,784 6.7 -13.5°
Maximum altitude 18:52:32 60° 76° (ENE) 1,126 4.1 -14.5°
Drops below altitude 10° 18:58:44 10° 157° (SSE) 2,734 6.0 -15.4°
Enters shadow 18:59:16 - 158° (SSE) 2,928 6.1 -15.5°
